Location: Unspecified
(0.0000°N, 0.0000°E)
Time: 13:54:57
(UTC+00:00)

LightSail 2 - Pass Details

Date: 14 September 2019
Orbit: 699 x 732 km, 24.0° (Epoch: 17 September)

Event Time Altitude Azimuth Distance (km) Brightness Sun altitude
Rises 18:24:06 0° 259° (WSW) 3,132 10.3 -7.1°
Reaches altitude 10° 18:27:34 10° 236° (SW) 2,207 8.6 -8.0°
Maximum altitude 18:30:32 15° 201° (SSW) 1,873 7.6 -8.7°
Drops below altitude 10° 18:33:30 10° 166° (SSE) 2,197 7.5 -9.5°
Enters shadow 18:36:54 - 143° (SE) 3,091 8.1 -10.3°
